Location: Palomar Observatory
(33.3560°N, 116.8630°W)
Time: 22:25:53
(UTC-07:00)

Iridium 57 - Visible Passes

Search period start: 28 June 2016 00:00
Search period end: 08 July 2016 00:00
Orbit: 776 x 779 km, 86.4° (Epoch: 28 June)

Date Brightness Start Highest point End Pass type
(mag) Time Alt. Az. Time Alt. Az. Time Alt. Az.
28 Jun 6.1 22:30:09 10° NNE 22:34:46 41° ENE 22:34:46 41° ENE visible
29 Jun 7.7 00:12:04 10° NW 00:15:14 17° W 00:15:14 17° W visible
29 Jun 6.9 21:57:24 10° NNE 22:01:24 22° E 22:01:26 22° E visible
29 Jun 6.8 23:37:29 10° NNW 23:41:55 33° W 23:41:55 33° W visible
30 Jun 7.6 21:26:12 10° ENE 21:27:35 11° ENE 21:28:08 11° E visible
30 Jun 5.7 23:03:33 10° N 23:08:36 65° W 23:08:36 65° W visible
01 Jul 5.5 22:30:01 10° N 22:35:13 64° E 22:35:18 64° E visible
02 Jul 8.0 00:13:47 10° WNW 00:15:15 11° WNW 00:15:47 11° W visible
02 Jul 6.3 21:56:56 10° NNE 22:01:36 32° E 22:02:00 32° E visible
02 Jul 7.3 23:38:05 10° NNW 23:42:03 22° W 23:42:29 22° W visible
03 Jul 7.1 21:24:31 10° NE 21:27:51 17° E 21:28:43 16° E visible
03 Jul 6.3 23:03:49 10° NNW 23:08:43 43° W 23:09:12 42° WSW visible
04 Jul 5.4 22:30:03 10° N 22:35:18 85° W 22:35:56 69° SSW visible
05 Jul 5.8 21:56:41 10° N 22:01:44 48° E 22:02:40 43° ESE visible
05 Jul 7.8 23:39:05 10° NW 23:41:57 15° W 23:43:10 14° W visible
06 Jul 6.7 21:23:48 10° NNE 21:28:04 25° E 21:29:25 22° ESE visible
06 Jul 7.0 23:04:15 10° NNW 23:08:41 29° W 23:09:54 26° WSW visible
07 Jul 7.4 20:51:58 10° NE 20:54:16 13° ENE 20:56:11 11° E visible
07 Jul 6.0 22:30:13 10° N 22:35:19 57° W 22:36:41 43° SW visible
